[[{"header":{"parameterUnit":"m.s-1","parameterCategory":1,"la1":30.2991,"la2":30.254,"lo1":-89.0895,"lo2":-89.0444,"dy":0.0017,"dx":0.0017,"nx":28,"ny":28,"refTime":"2024-05-26T21:00:00:Z","depth":0,"parameterNumber":2,"parameterNumberName":"U-component_of_WINDS"},"data":[0,0,0,0,0,0,0,0,0,0,0,0,0,0,0,0,0,0,0,0,0,0,0,0,0,0,0,0,0,0,0,0,0,0,0,0,0,0,0,0,0,0,0,0,0,0,0,0,0,0,0,0,0,0,0,0,0,0,2.9578,2.9579,0,2.9643,2.9644,2.9644,2.9621,2.962,2.9618,2.9617,2.9682,2.9685,2.9688,0,0,0,0,0,0,0,0,0,0,0,0,0,2.9431,2.9433,2.9578,2.9579,2.958,2.9643,2.9644,2.9644,2.9622,2.962,2.9618,2.9616,2.9681,2.9684,2.9688,0,0,0,0,0,0,0,0,0,0,0,0,0,2.9495,2.9434,2.9578,2.9576,2.9576,2.9643,2.9644,2.9645,2.9622,2.962,2.9618,2.9616,2.968,2.9684,2.9689,2.976,0,0,2.9703,2.9705,0,0,0,0,0,0,0,0,2.9491,2.95,2.9575,2.9576,2.9577,2.9622,2.9615,2.9683,2.9622,2.9605,2.9617,2.9615,2.9663,2.9669,2.9686,2.9763,2.9766,2.9703,2.9706,2.9708,2.9709,0,0,0,0,0,0,0,2.9487,2.9497,2.9604,2.9576,2.9577,2.957,2.9577,2.9628,2.9645,2.9606,2.9604,2.9613,2.9663,2.9682,2.9687,2.9767,2.9703,2.9707,2.971,2.9712,2.9902,2.9904,0,0,0,0,0,0,2.9482,2.9494,2.9601,2.9606,2.9528,2.9575,2.9582,2.9609,2.9645,2.9648,2.9614,2.9611,2.9675,2.9682,2.969,2.9773,2.9708,2.9712,2.9715,2.99,2.9903,2.9905,0,0,0,0,0,0,2.9479,2.9492,2.9599,2.9549,2.9562,2.958,2.961,2.9612,2.963,2.9651,2.9654,2.963,2.9674,2.9683,2.9742,2.9775,2.9714,2.9718,2.9897,2.9901,2.9904,2.9943,0,0,0,0,0,0,2.9475,2.9491,2.952,2.955,2.9565,2.9652,2.9612,2.9615,2.9638,2.9635,2.9667,2.967,2.9673,2.9735,2.9747,2.9781,2.9722,2.9894,2.9899,2.9903,2.9939,2.9948,2.9955,0,0,0,0,0,2.947,2.9529,2.9521,2.9535,2.9601,2.9654,2.9662,2.9665,2.9641,2.9669,2.9682,2.9669,2.977,2.9742,2.9754,2.979,2.9892,2.9898,2.9903,2.9935,2.9946,2.9955,0,0,0,0,0,0,2.9502,2.9533,2.9525,2.9595,2.9622,2.965,2.9685,2.9676,2.971,2.9705,2.9706,2.9714,2.9774,2.9788,2.9756,2.9859,2.9827,2.9835,2.9848,2.9858,2.9866,2.9861,2.9726,0,0,0,0,0,2.9517,2.9558,2.9582,2.9642,2.9656,2.9668,2.9691,2.9691,2.9718,2.9729,2.9746,2.9773,2.981,2.9835,2.9871,2.9941,2.9946,2.9971,2.9979,2.9986,2.9992,3.0027,3.0038,2.9922,2.9922,2.9922,0,0,2.9549,2.9571,2.9597,2.9649,2.967,2.971,2.9678,2.9723,2.9753,2.9736,2.9792,2.9806,2.9835,2.9899,2.9928,2.9912,3.0025,2.9992,2.9997,3.0001,3.0034,3.0045,3.0054,2.9926,2.9925,2.9925,0,0,2.9628,2.965,2.97,2.9721,2.9752,2.976,2.9772,2.98,2.9809,2.9865,2.9852,2.9887,2.9952,2.9973,2.9992,3.0075,3.0063,3.0087,3.0128,3.0162,3.0171,3.0179,3.0207,3.0217,3.0093,3.0094,3.0094,0,2.9664,2.9726,2.9727,2.9773,2.9795,2.9781,2.9831,2.9851,2.9893,2.9907,2.989,2.9969,2.9988,3.0055,3.0075,3.0092,3.0104,3.0083,3.017,3.0178,3.0186,3.0212,3.0223,3.0096,3.0096,3.0095,3.0095,0,2.9767,2.9809,2.9846,2.9886,2.9912,2.996,2.9967,2.9994,2.999,2.9999,3.0055,3.0077,3.0115,3.0131,3.0129,3.0197,3.0186,3.017,3.0137,3.0199,3.0224,3.0234,3.01,3.0099,3.0098,3.0097,0,0,2.9869,2.9907,2.992,2.9937,2.9969,3.0002,3.0047,3.0085,3.0106,3.0135,3.0172,3.0226,3.021,3.0231,3.023,3.0261,3.0322,3.0239,3.024,3.0252,3.0396,3.0407,3.0419,3.0314,3.0316,3.0318,3.0393,0,2.9949,3.003,3.0031,3.0105,3.0143,3.0129,3.0168,3.0191,3.02,3.0232,3.0242,3.0279,3.0256,3.0268,3.0298,3.0308,3.035,3.0303,3.0347,3.0349,3.0339,3.0433,3.0446,3.0516,3.0403,3.0404,3.0405,0,3.0053,3.0084,3.0161,3.0185,3.0201,3.0237,3.027,3.0302,3.0327,3.0331,3.0353,3.0347,3.0392,3.0358,3.0419,3.0386,3.0404,3.0412,3.0414,3.0418,3.038,3.0437,3.0538,3.0548,3.0421,3.042,3.0419,0,3.0117,3.0178,3.0232,3.0246,3.0277,3.0301,3.0315,3.0337,3.0359,3.0388,3.0401,3.0435,3.0453,3.0478,3.048,3.0456,3.054,3.0507,3.0543,3.0543,3.0561,3.056,3.0665,3.0575,3.0574,3.0574,3.0574,0,3.0206,3.0253,3.026,3.0293,3.0345,3.0345,3.0396,3.0407,3.0427,3.046,3.045,3.0482,3.0483,3.0515,3.0517,3.0565,3.0574,3.0577,3.0576,3.0577,3.0576,3.0588,3.0583,3.0577,3.0576,3.0576,3.0575,0,3.0286,3.0294,3.035,3.0373,3.038,3.0417,3.0436,3.0466,3.0473,3.0515,3.0525,3.0535,3.0571,3.0576,3.0619,3.062,3.0677,3.0673,3.0669,3.0668,3.0702,3.0698,3.0818,3.0832,3.0734,3.0735,3.0736,0,3.0342,3.0378,3.0404,3.0426,3.044,3.0476,3.0497,3.0498,3.052,3.055,3.0576,3.0611,3.0639,3.0697,3.0708,3.074,3.0735,3.0774,3.0739,3.0738,3.0733,3.073,3.0733,3.0781,3.0782,3.0783,3.0784,0,3.0439,3.044,3.0472,3.0504,3.053,3.0556,3.058,3.0597,3.0601,3.0626,3.0663,3.0685,3.0727,3.0762,3.0792,3.0805,3.0794,3.0794,3.0804,3.0804,3.08,3.0801,3.0686,3.0792,3.0791,3.079,3.079,3.0789,3.0508,3.0538,3.056,3.0595,3.0613,3.0635,3.0663,3.0673,3.0704,3.0739,3.0737,3.0777,3.0798,3.0838,3.0852,3.0882,3.0869,3.0884,3.0887,3.089,3.0893,3.0796,3.0888,3.0888,3.0888,3.0887,3.0887,0,3.0602,3.0616,3.0648,3.0681,3.0708,3.0695,3.072,3.0743,3.0778,3.0799,3.0826,3.0867,3.09,3.0912,3.0943,3.0965,3.096,3.0973,3.0971,3.0973,3.0904,3.0891,3.0975,3.0975,3.0975,3.0975,3.0975,3.0975,3.0655,3.0704,3.0708,3.0765,3.0777,3.0816,3.0831,3.0851,3.0867,3.0913,3.0939,3.0947,3.0964,3.0996,3.1024,3.1027,3.1038,3.1052,3.1052,3.0987,3.0978,3.097,3.0958,3.1055,3.1055,3.1119,3.112,3.112]},{"header":{"parameterUnit":"m.s-1","parameterCategory":1,"la1":30.2991,"la2":30.254,"lo1":-89.0895,"lo2":-89.0444,"dy":0.0017,"dx":0.0017,"nx":28,"ny":28,"refTime":"2024-05-26T21:00:00:Z","depth":0,"parameterNumber":3,"parameterNumberName":"V-component_of_WINDS"},"data":[0,0,0,0,0,0,0,0,0,0,0,0,0,0,0,0,0,0,0,0,0,0,0,0,0,0,0,0,0,0,0,0,0,0,0,0,0,0,0,0,0,0,0,0,0,0,0,0,0,0,0,0,0,0,0,0,0,0,4.8424,4.8426,0,4.8558,4.856,4.8561,4.8543,4.8541,4.8538,4.8536,4.8668,4.8674,4.8679,0,0,0,0,0,0,0,0,0,0,0,0,0,4.8147,4.8152,4.8424,4.8426,4.8428,4.8558,4.856,4.8561,4.8543,4.854,4.8538,4.8535,4.8667,4.8673,4.868,0,0,0,0,0,0,0,0,0,0,0,0,0,4.8273,4.8154,4.8424,4.8434,4.8437,4.8557,4.856,4.8562,4.8544,4.854,4.8537,4.8534,4.8664,4.8673,4.8681,4.8798,0,0,4.8706,4.871,0,0,0,0,0,0,0,0,4.8265,4.8283,4.8431,4.8434,4.8437,4.853,4.851,4.8641,4.8545,4.8503,4.8536,4.8532,4.8625,4.8636,4.8668,4.8805,4.881,4.8707,4.8712,4.8716,4.8718,0,0,0,0,0,0,0,4.8257,4.8277,4.8477,4.8433,4.8437,4.843,4.8444,4.8535,4.8581,4.8506,4.8505,4.8522,4.8626,4.866,4.8671,4.8812,4.8707,4.8714,4.8719,4.8723,4.9048,4.9051,0,0,0,0,0,0,4.8246,4.827,4.8473,4.8481,4.8341,4.8438,4.8454,4.8504,4.858,4.8588,4.8524,4.852,4.8648,4.8662,4.8676,4.8817,4.8716,4.8723,4.8728,4.9044,4.9049,4.9053,0,0,0,0,0,0,4.824,4.8264,4.8467,4.8375,4.8401,4.8446,4.8502,4.8508,4.8543,4.8593,4.8601,4.8552,4.8646,4.8664,4.8768,4.8821,4.8727,4.8735,4.904,4.9046,4.9051,4.9101,0,0,0,0,0,0,4.8232,4.8262,4.8309,4.8377,4.8406,4.8559,4.8506,4.8513,4.8558,4.8554,4.8621,4.8629,4.8645,4.8755,4.8776,4.8831,4.8741,4.9035,4.9043,4.9049,4.9094,4.9107,4.9118,0,0,0,0,0,4.8223,4.8318,4.8312,4.8337,4.8466,4.8562,4.8579,4.8596,4.8562,4.8608,4.864,4.8627,4.8812,4.8766,4.8789,4.8848,4.9032,4.9041,4.9048,4.9089,4.9105,4.9118,0,0,0,0,0,0,4.8255,4.8327,4.8321,4.8441,4.8496,4.8559,4.8618,4.8612,4.8677,4.867,4.8687,4.8702,4.8807,4.8837,4.8785,4.8964,4.8917,4.893,4.894,4.8955,4.8967,4.8957,4.8748,0,0,0,0,0,4.8276,4.8351,4.8409,4.8509,4.8537,4.8573,4.8616,4.8624,4.8681,4.8703,4.8743,4.8797,4.8867,4.8913,4.898,4.9098,4.9111,4.915,4.9161,4.9171,4.9182,4.9244,4.9261,4.908,4.9079,4.9079,0,0,4.8321,4.8369,4.8415,4.8517,4.856,4.8634,4.8592,4.8674,4.8728,4.8715,4.8815,4.8846,4.8907,4.9018,4.9069,4.9047,4.9235,4.9181,4.9188,4.9194,4.9254,4.9271,4.9286,4.9085,4.9084,4.9083,0,0,4.844,4.8485,4.8572,4.8616,4.8683,4.8706,4.8726,4.879,4.881,4.8911,4.8902,4.8966,4.9087,4.9131,4.9168,4.9301,4.929,4.9322,4.9383,4.9444,4.9458,4.9471,4.9516,4.9532,4.9333,4.9333,4.9333,0,4.8486,4.86,4.8618,4.87,4.8743,4.8735,4.8823,4.8864,4.8948,4.8977,4.8952,4.9102,4.9143,4.9262,4.9294,4.9326,4.9348,4.9314,4.9455,4.9468,4.948,4.9523,4.954,4.9336,4.9336,4.9335,4.9335,0,4.8653,4.8732,4.8794,4.8877,4.8927,4.9011,4.9039,4.9088,4.9091,4.9116,4.9217,4.9265,4.9341,4.937,4.9374,4.9489,4.9473,4.9451,4.9405,4.95,4.9541,4.9558,4.9341,4.934,4.9339,4.9338,0,0,4.8798,4.8887,4.891,4.8946,4.9017,4.9078,4.9159,4.9235,4.9275,4.9333,4.94,4.9502,4.9481,4.9524,4.9532,4.9585,4.9684,4.9556,4.9558,4.9577,4.9811,4.9827,4.9846,4.9677,4.968,4.9683,4.9806,0,4.8923,4.907,4.9087,4.9217,4.9289,4.9281,4.9352,4.9402,4.9426,4.9488,4.9515,4.9586,4.9554,4.9579,4.9632,4.9661,4.9731,4.9652,4.9738,4.9741,4.9723,4.9868,4.9886,4.9999,4.9822,4.9825,4.9827,0,4.9089,4.9152,4.929,4.9349,4.9379,4.9443,4.9512,4.9572,4.9627,4.9641,4.9688,4.9689,4.977,4.972,4.9832,4.9778,4.9813,4.9833,4.9837,4.9846,4.9789,4.9879,5.0036,5.0053,4.9853,4.985,4.9849,0,4.9179,4.9298,4.9395,4.9426,4.9498,4.9543,4.9574,4.9626,4.967,4.9729,4.9756,4.9824,4.9861,4.9912,4.9929,4.9892,5.0039,4.9991,5.0051,5.0051,5.0083,5.008,5.0247,5.0107,5.0107,5.0106,5.0106,0,4.9316,4.9401,4.9436,4.9496,4.9589,4.9606,4.9696,4.9725,4.9771,4.9834,4.9831,4.989,4.991,4.9972,4.9986,5.0074,5.0091,5.0103,5.0105,5.0103,5.0101,5.0126,5.0118,5.0111,5.011,5.0109,5.0108,0,4.9433,4.946,4.9565,4.9624,4.9641,4.9707,4.9756,4.9812,4.9835,4.9915,4.9934,4.997,5.0041,5.0064,5.0151,5.016,5.0263,5.0259,5.0245,5.0245,5.0303,5.0297,5.0491,5.0516,5.036,5.0362,5.0363,0,4.9519,4.9583,4.9649,4.9692,4.9725,4.9794,4.9838,4.9856,4.9901,4.9967,5.0015,5.0086,5.0145,5.0259,5.0291,5.0357,5.0353,5.0417,5.0363,5.0358,5.0353,5.0348,5.0354,5.0427,5.0428,5.043,5.0431,0,4.9667,4.9677,4.9742,4.9811,4.9863,4.9918,4.997,5.0005,5.003,5.0081,5.0155,5.02,5.0288,5.0358,5.0424,5.0454,5.0446,5.0447,5.0464,5.0462,5.0451,5.0456,5.0271,5.0443,5.0442,5.0441,5.044,5.044,4.977,4.9826,4.9881,4.9952,4.9993,5.0042,5.0097,5.0127,5.0189,5.0263,5.0269,5.0348,5.0398,5.0487,5.0519,5.058,5.0561,5.0587,5.0593,5.0598,5.0602,5.0442,5.0592,5.0592,5.0591,5.0591,5.0591,0,4.9918,4.9952,5.0017,5.0091,5.0146,5.0135,5.0191,5.0238,5.0308,5.0356,5.0413,5.0497,5.0564,5.0601,5.0667,5.0708,5.0706,5.0725,5.0721,5.0728,5.0616,5.0594,5.0725,5.0725,5.0725,5.0725,5.0725,5.0725,5.0001,5.0095,5.011,5.0223,5.0256,5.0335,5.0368,5.0412,5.045,5.0544,5.06,5.0624,5.0666,5.0735,5.0795,5.0804,5.0828,5.0849,5.0855,5.075,5.0736,5.0723,5.0702,5.0854,5.0854,5.0962,5.0963,5.0964]}]]